AirNav   SIMCOM
 
 1702 users online  

KOMN Ormond Beach Municipal Airport
Ormond Beach, Florida, USA

GOING TO ORMOND BEACH?


FAA INFORMATION EFFECTIVE 12 OCTOBER 2017

Location

FAA Identifier: OMN
Lat/Long: 29-18-04.1000N / 081-06-49.7000W
29-18.068333N / 081-06.828333W
29.3011389 / -81.1138056
(estimated)
Elevation: 27.9 ft. / 8.5 m (surveyed)
Variation: 06W (2010)
From city: 3 miles NW of ORMOND BEACH, FL
Time zone: UTC -4 (UTC -5 during Standard Time)
Zip code: 32174

Airport Operations

Airport use: Open to the public
Activation date: 02/1944
Control tower: yes
ARTCC: JACKSONVILLE CENTER
FSS: SAINT PETERSBURG FLIGHT SERVICE STATION
NOTAMs facility: OMN (NOTAM-D service available)
Attendance: 0700-1900
Pattern altitude: 1027.9 ft. MSL
Wind indicator: lighted
Segmented circle: yes
Lights: ACTVT MIRL RYS 08/26 & 17/35, PAPI RYS 08, 26, 17 & 35, REIL RY 08, 17, 26, 35 - CTAF.
Beacon: white-green (lighted land airport)
Operates sunset to sunrise.

Airport Communications

CTAF: 119.075
UNICOM: 123.05
ATIS: 118.475
WX AWOS-3: 118.475 (386-615-7084)
ORMOND BEACH GROUND: 121.625 [0700-1900]
ORMOND BEACH TOWER: 119.075 [0700-1900]
DAYTONA APPROACH: 125.8
DAYTONA DEPARTURE: 125.8
CLEARANCE DELIVERY: 121.625
CLASS C: 125.8
WX ASOS at DAB (8 nm S): PHONE 386-253-7469
WX AWOS-3 at FIN (11 nm NW): 128.325 (386-437-7334)
WX AWOS-3 at DED (17 nm SW): 119.575 (386-740-5811)
WX AWOS-3 at EVB (17 nm SE): 124.625 (386-409-4705)

Nearby radio navigation aids

VOR radial/distance  VOR name  Freq  Var
OMN at fieldORMOND BEACH VORTAC112.6000E

 
NDB name  Hdg/Dist  Freq  Var  ID
SANFORD017/31.740805WSFB ... ..-. -...

Airport Services

Fuel available: 100LL JET-A
Airframe service: MAJOR
Powerplant service: MAJOR
Bottled oxygen: NONE

Runway Information

Runway 8/26

Dimensions: 4005 x 75 ft. / 1221 x 23 m
Surface: asphalt, in good condition
Weight bearing capacity: 
Single wheel: 30.0
Double wheel: 40.0
Runway edge lights: medium intensity
RUNWAY 8  RUNWAY 26
Latitude: 29-18.052353N29-18.176085N
Longitude: 081-07.214080W081-06.473608W
Elevation: 27.5 ft.20.6 ft.
Gradient: 0.2%0.2%
Traffic pattern: leftright
Runway heading: 085 magnetic, 079 true265 magnetic, 259 true
Markings: nonprecision, in fair conditionnonprecision, in fair condition
Visual slope indicator: 4-light PAPI on left (3.40 degrees glide path)4-light PAPI on left (3.40 degrees glide path)
Runway end identifier lights: yesyes
Touchdown point: yes, no lightsyes, no lights
Obstructions: 45 ft. trees, 1220 ft. from runway, 125 ft. right of centerline, 23:1 slope to clear65 ft. trees, 850 ft. from runway, 10:1 slope to clear

Runway 17/35

Dimensions: 3704 x 100 ft. / 1129 x 30 m
Surface: asphalt, in good condition
Weight bearing capacity: 
Single wheel: 30.0
Double wheel: 40.0
Runway edge lights: medium intensity
RUNWAY 17  RUNWAY 35
Latitude: 29-18.318983N29-17.718658N
Longitude: 081-06.875942W081-06.745468W
Elevation: 25.2 ft.25.9 ft.
Gradient: 0.1%0.1%
Traffic pattern: rightleft
Runway heading: 175 magnetic, 169 true355 magnetic, 349 true
Markings: nonprecision, in fair conditionnonprecision, in fair condition
Visual slope indicator: 4-light PAPI on left (3.50 degrees glide path)4-light PAPI on left (3.00 degrees glide path)
Runway end identifier lights: yesyes
Touchdown point: yes, no lightsyes, no lights
Obstructions: 27 ft. trees, 725 ft. from runway, 20:1 slope to clear35 ft. tree, 688 ft. from runway, 25 ft. right of centerline, 14:1 slope to clear

Helipad H1

Dimensions: 86 x 86 ft. / 26 x 26 m
Surface: concrete
Runway edge lights: PERI
Traffic pattern: leftleft

Airport Ownership and Management from official FAA records

Ownership: Publicly-owned
Owner: CITY OF ORMOND BEACH
PO BOX 277
ORMOND BEACH, FL 32175-0277
Phone 386-676-3224
CONTACT PERSON: STEVEN LICHLITER 386-615-7019
Manager: STEVEN LICHLITER
ORMOND BEACH MUNICIPAL AIRPORT, P.O. BOX 277
ORMOND BEACH, FL 32175-8406
Phone 386-615-7019
FBO NR 386-677-5724.

Airport Operational Statistics

Aircraft based on the field: 147
Single engine airplanes: 113
Multi engine airplanes: 24
Jet airplanes: 1
Helicopters: 9
    
Aircraft operations: avg 348/day *
54% local general aviation
46% transient general aviation
<1% air taxi
<1% military
* for 12-month period ending 16 February 2016

Additional Remarks

PORTIONS OF TWYS CRACKING WITH GRASS GROWING THROUGH.
NOISE ABATEMENT PROCEDURES IN EFFECT CTC AMGR 386-615-7019.
TREES IN ALL TRANSITION SFCS AT THE APCH ENDS; THE PRIMARY SFCS ARE 500 FT WIDE WITH 7:1 TRANSITION SFC ON THE SIDES.
LINE OF SIGHT OBSTD BTN RY 08/26 AND RY 17/35.
TWY C LGT OTS
DEER ON AND INVOF ARPT
FOR CD OR TO CNL IFR WHEN ATCT IS CLSD CTC DAB APCH AT 386-226-3939.

Instrument Procedures

NOTE: All procedures below are presented as PDF files. If you need a reader for these files, you should download the free Adobe Reader.

NOT FOR NAVIGATION. Please procure official charts for flight.
FAA instrument procedures published for use between 14 September 2017 at 0901Z and 9 November 2017 at 0900Z.

 
IAPs - Instrument Approach Procedures
RNAV (GPS) RWY 08   download (237KB)
RNAV (GPS) RWY 17   download (223KB)
RNAV (GPS) RWY 26 **CHANGED**   download (197KB)
VOR RWY 17   download (197KB)
NOTE: Special Alternate Minimums apply   download (35KB)
NOTE: Special Take-Off Minimums/Departure Procedures apply   download (162KB)

Other nearby airports with instrument procedures:

KDAB - Daytona Beach International Airport (8 nm S)
KFIN - Flagler Executive Airport (11 nm NW)
KDED - DeLand Municipal Airport-Sidney H Taylor Field (17 nm SW)
KEVB - New Smyrna Beach Municipal Airport (17 nm SE)
X50 - Massey Ranch Airpark (22 nm SE)
 
Loc | Ops | Rwys | IFR | FBO | Links
Com | Nav | Svcs | Stats | Notes


 
Area around KOMN (Ormond Beach Municipal Airport)
 
Road maps at: MapQuest Bing Google
 
Aerial photo
WARNING: Photo may not be current or correct
Aerial photo of KOMN (Ormond Beach Municipal Airport)
Photo by Paul Bryson
Photo taken 15-Mar-2009
from the west-northwest

Do you have a better or more recent aerial photo of Ormond Beach Municipal Airport that you would like to share? If so, please send us your photo.

 
Sectional chart

 
Airport distance calculator
Flying to Ormond Beach Municipal Airport? Find the distance to fly.

From to KOMN

Sunrise and sunset
Times for 23-Oct-2017
 Local
(UTC-4)
 Zulu
(UTC)
Morning civil twilight07:0811:08
Sunrise07:3211:32
Sunset18:4622:46
Evening civil twilight19:1023:10

Current date and time
Zulu (UTC)  23-Oct-2017 16:18:01
Local (UTC-4)  23-Oct-2017 12:18:01
 
METAR
KOMN 231550Z 15008G14KT 4SM HZ SCT023 28/23 A3003
KDAB 
7nm S 
231558Z 15010KT 7SM BKN027 OVC150 28/26 A3002 RMK AO2 T02780256 $
KFIN 
11nm NW 
231550Z 18008KT 7SM BKN022 27/23 A3002
7FL6 
14nm S 
SuperAWOS
231555Z AUTO 16005KT 10SM 28/24 A3003
KDED 
17nm SW 
231555Z AUTO 16012KT 10SM BKN022 BKN028 28/23 A3002 RMK AO2
KEVB 
17nm SE 
231547Z 17014G19KT 8SM SCT023 28/23 A3005
TAF
KDAB 
7nm S 
231140Z 2312/2412 15005KT P6SM FEW022 OVC200 FM231400 16008KT P6SM SCT020 OVC200 FM231800 17009KT P6SM VCSH BKN040 OVC200 TEMPO 2319/2322 3SM SHRA BKN030 FM232200 22006KT P6SM VCSH SCT040 BKN080
NOTAMs
Click for the latest NOTAMs
NOTAMs are issued by the DoD/FAA and will open in a separate window not controlled by AirNav.

 

 
 

FBO, Fuel Providers, and Aircraft Ground Support

  
 Business Name 
 
 Contact 
 
 Services / Description 
 
Fuel Prices
 
Comments
  
Sunrise Flight Academy 386-677-5724
no information available

If you are affiliated with Sunrise Flight Academy and would like to show here your services, contact info, web link, logo, and more, click here
100LL Jet A
FS $4.45 $4.25 
SS $3.86 --- 
 Updated 23-Oct-2017
 
   1 read write
FS=Full service
SS=Self service
Update Fuel Prices
 

Aviation Businesses, Services, and Facilities

  
 Business Name 
 
 Contact 
 
 Services / Description 
 
Distance
 
Comments
  
Tomlinson Aviation 386-676-0312
toll-free 1-877-359-4356
[web site]
[email]
Pilot school (FAR Part 141), Flight training, Aerial tours / aerial sightseeing, Aircraft charters, Aerial photography, Aircraft maintenance, Aircraft parts, ...

More info about Tomlinson Aviation
on airport  
   1 read write
 

Would you like to see your business listed on this page?

 If your business provides an interesting product or service to pilots, flight crews, aircraft, or users of the Ormond Beach Municipal Airport, you should consider listing it here.  To start the listing process, click on the button below
 
Add a business
 

Other Pages about Ormond Beach Municipal Airport

www.ormondbeach.org/...
 
Update a link
 
Copyright © AirNav, LLC. All rights reserved. Privacy Policy  Contact